Regional Weather Roundup
Issued by NWS

Home | Current Version | Previous Version | Graphics & Text | Print | Product List | Glossary On
Versions: 1 2 3 4 5 6 7 8 9 10 11 12 13 14 15 16 17 18 19 20 21 22 23 24 25 26 27 28 29 30 31 32 33 34 35 36 37 38 39 40 41 42 43 44 45 46 47 48 49 50
000
ASUS43 KMKX 210700
RWRWI

WISCONSIN REGIONAL WEATHER ROUNDUP
NATIONAL WEATHER SERVICE MILWAUKEE/SULLIVAN WI
200 AM CDT MON APR 21 2014

NOTE: "FAIR" INDICATES FEW OR NO CLOUDS BELOW 12,000 FEET WITH NO
SIGNIFICANT WEATHER AND/OR OBSTRUCTIONS TO VISIBILITY.

WIZ001-002-006>008-014>016-023>028-210800-
NORTHWEST WISCONSIN

CITY           SKY/WX    TMP DP  RH WIND       PRES   REMARKS
SUPERIOR ARPT  CLEAR     31  30  96 CALM      29.94F FOG
ASHLAND        CLEAR     38  34  85 W3        29.96F
HAYWARD        PTCLDY    35  30  82 CALM      29.96F
SIREN          PTCLDY    51  32  48 SE3       29.94F
RICE LAKE      MOCLDY    46  43  91 CALM      29.97F
LADYSMITH      FOG       48  47  96 CALM      29.98F VSB 1/4
EAU CLAIRE     CLOUDY    54  52  93 NE3       29.96R
MENOMONIE      CLOUDY    53  52  96 CALM      29.96R FOG
NEW RICHMOND   CLOUDY    54  54  99 SE5       29.96R
OSCEOLA        CLOUDY    52  43  71 CALM      29.97R
$$

WIZ003>005-009-010-017-018-210800-
NORTH CENTRAL WISCONSIN

CITY           SKY/WX    TMP DP  RH WIND       PRES   REMARKS
WOODRUFF       PTCLDY    37  32  84 CALM      29.97F
RHINELANDER    FOG       43  42  97 CALM      29.98R VSB 1/4
EAGLE RIVER    PTCLDY    34  34 100 CALM      29.97F
LAND O LAKES   PTCLDY    30  29  95 CALM      29.99S
PHILLIPS       PTCLDY    40  39  95 CALM      29.97S
TOMAHAWK       FOG       39  38  96 CALM      29.98R VSB 1/2
MEDFORD        CLOUDY    50  50  99 E3        29.97R FOG
MERRILL        CLOUDY    48  48 100 CALM      29.98R FOG
$$

WIZ029-030-035-036-043>047-210800-
CENTRAL WISCONSIN

CITY           SKY/WX    TMP DP  RH WIND       PRES   REMARKS
WAUSAU         CLOUDY    53  52  96 E3        29.95F FOG
MOSINEE        CLOUDY    50  50 100 NE3       29.97F FOG
MARSHFIELD     CLOUDY    53  52  96 CALM      29.95S FOG
STEVENS POINT  CLOUDY    51  50  97 CALM      29.96F FOG
WAUPACA        CLOUDY    54  52  94 CALM      29.96F FOG
WAUTOMA        NOT AVBL
WISC RAPIDS    CLOUDY    53  51  93 N5        29.96S FOG
CAMP DOUGLAS   LGT RAIN  54  54 100 CALM      29.95F
$$

WIZ011>013-019>022-031-037>040-048>050-210800-
NORTHEAST WISCONSIN

CITY           SKY/WX    TMP DP  RH WIND       PRES   REMARKS
ANTIGO         CLOUDY    47  47  97 CALM      29.97F FOG
STURGEON BAY   MOCLDY    48  43  81 CALM      29.96F
GREEN BAY      LGT RAIN  50  50 100 NE8       29.94F FOG
MANITOWOC      NOT AVBL
APPLETON       CLOUDY    52  48  87 CALM      29.96S
CLINTONVILLE   CLOUDY    52  52 100 N8        29.97S FOG
OSHKOSH        CLOUDY    51  48  89 CALM      29.95S
$$

WIZ032>034-041-042-053>061-210800-
SOUTHWEST WISCONSIN

CITY           SKY/WX    TMP DP  RH WIND       PRES   REMARKS
LA CROSSE      CLOUDY    53  52  96 CALM      29.96S FOG
SPARTA         LGT RAIN  54  53  97 CALM      29.98R
VIROQUA        CLOUDY    56  56  97 SW3       29.97R
BOSCOBEL       CLOUDY    56  54  93 SW5       29.96F FOG
PRAIRIE DU CHI CLOUDY    56  55  96 CALM      29.98F FOG
PLATTEVILLE    FAIR      59  48  67 W8        29.99F
$$

WIZ056-057-062-063-064-067-068-210800-
SOUTH CENTRAL WISCONSIN

CITY           SKY/WX    TMP DP  RH WIND       PRES   REMARKS
BARABOO/DELLS  CLOUDY    55  51  87 CALM      29.96R
LONE ROCK      NOT AVBL
WATERTOWN      MOCLDY    57  44  60 S3        29.95F
MADISON        CLOUDY    59  51  75 SW5       29.96S
MIDDLETON      PTSUNNY   60  50  67 S5        29.97S
MONROE         DRIZZLE   62  48  60 SW13      29.98S
JANESVILLE     CLOUDY    64  41  42 SW12      29.98R
$$

WIZ051-052-058>065-066-070>072-210800-
SOUTHEAST WISCONSIN

CITY           SKY/WX    TMP DP  RH WIND       PRES   REMARKS
MILWAUKEE      MOCLDY    63  41  44 S8        29.98S
WAUKESHA       MOCLDY    59  41  51 S8        29.98S
MILWAUKEE/TIMM MOCLDY    59  37  44 S7        29.98S
RACINE         MOCLDY    57  41  55 S6        30.00S
BURLINGTON     MOCLDY    56  43  61 S6        29.98S
KENOSHA        CLOUDY    60  42  51 S7        29.99S
FOND DU LAC    MOCLDY    49  45  86 NW5       29.94F
SHEBOYGAN      CLOUDY    46  40  79 CALM      29.94F
WEST BEND      MOCLDY    50  41  71 CALM      29.96F
JUNEAU         MOCLDY    57  42  56 S8        29.96F
$$

LSZ147-162-210800-
LAKE SUPERIOR

STATION/POSITION TIME  TEMP    WIND        PRES    WAVE
                       AIR SEA DIR/SP/G            HT/PER
                 (UTC) (F)     (DEG/KT/KT) (MB)    (FT/S)
DEVILS ISLAND    0600   54     170/ 11/ 13 1014.5F
PORT WING        0600          300/  6/  8 1014.6S
SAXON HARBOR     0600             CALM     1014.6
$$

LMZ867-665-643>646-210800-
LAKE MICHIGAN

STATION/POSITION TIME  TEMP    WIND        PRES    WAVE
                       AIR SEA DIR/SP/G            HT/PER
                 (UTC) (F)     (DEG/KT/KT) (MB)    (FT/S)
NORTHPORT PIER   0600   39     180/  2/  5 1015.6F
SISTER BAY       0609   44        CALM       N/A
KEWAUNEE LAKESHO 0600   42     150/  2/  3 1015.5F
SHEBOYGAN LAKESH 0600   46     200/  5/  6 1015.2F
PORT WASHINGTON  0600   45        CALM     1015.2F
MILWAUKEE LAKESH 0600   47     140/  2/  4   N/A
KENOSHA   LAKESH 0600   47     180/  9/ 11   N/A
$$

TC  - TEMPERATURE IN CELSIUS
VSB - VISIBILITY IN STATUTE MILES
WCI - WIND CHILL INDEX
HX  - HEAT INDEX




USA.gov is the U.S. government's official web portal to all federal, state and local government web resources and services.